Location: Tamazert
(32.6352°N, 5.2072°W)
Time: 16:40:11
(UTC+00:00)

Cosmos 2228 - Pass Details

Date: 22 May 2022
Orbit: 586 x 617 km, 82.5° (Epoch: 07 July)

Event Time Altitude Azimuth Distance (km) Brightness Sun altitude
Rises 04:27:16 0° 337° (NNW) 2,883 6.6 -10.2°
Reaches altitude 10° 04:29:52 10° 322° (NW) 1,969 5.6 -9.8°
Maximum altitude 04:33:14 22° 271° (W) 1,331 4.3 -9.2°
Drops below altitude 10° 04:36:35 10° 220° (SW) 1,945 5.0 -8.6°
Enters shadow 04:36:49 - 218° (SW) 2,020 5.1 -8.5°
